| time (UTC) | temp C | wind direction | speed KPH | gust KPH | rain 1hr cm | rain 24hr cm | rain mn cm | humidity % | barometer mb |
| 20260505152928 | 12 | 76 | 0.0 | 3.2 | 0.00 | 0.00 | 0.00 | 91 | 1006.8 |
| 20260505152426 | 11 | 4 | 0.0 | 4.8 | 0.00 | 0.00 | 0.00 | 91 | 1006.8 |
| 20260505151925 | 12 | 295 | 3.2 | 4.8 | 0.00 | 0.00 | 0.00 | 90 | 1006.8 |
| 20260505151416 | 11 | 283 | 0.0 | 3.2 | 0.00 | 0.00 | 0.00 | 91 | 1007.0 |
| 20260505150914 | 11 | 346 | 0.0 | 3.2 | 0.00 | 0.00 | 0.00 | 91 | 1006.8 |
| 20260505150410 | 11 | 71 | 0.0 | 3.2 | 0.00 | 0.00 | 0.00 | 92 | 1006.8 |
| 20260505140334 | 11 | 50 | 1.6 | 3.2 | 0.00 | 0.00 | 0.00 | 97 | 1006.4 |
| 20260505130252 | 10 | 131 | 1.6 | 4.8 | 0.00 | 0.00 | 0.00 | 98 | 1006.1 |
| 20260505124743 | 10 | 148 | 0.0 | 3.2 | 0.00 | 0.00 | 0.00 | 98 | 1006.0 |
| 20260505124240 | 10 | 93 | 3.2 | 4.8 | 0.00 | 0.00 | 0.00 | 98 | 1005.8 |
| 20260505123735 | 10 | 94 | 1.6 | 3.2 | 0.00 | 0.00 | 0.00 | 98 | 1005.8 |
| 20260505123232 | 10 | 64 | 0.0 | 3.2 | 0.00 | 0.00 | 0.00 | 98 | 1005.8 |
| 20260505122728 | 10 | 78 | 1.6 | 3.2 | 0.00 | 0.00 | 0.00 | 98 | 1005.8 |
| 20260505122226 | 10 | 101 | 1.6 | 3.2 | 0.00 | 0.00 | 0.00 | 97 | 1005.9 |
| 20260505121722 | 10 | 57 | 0.0 | 1.6 | 0.00 | 0.00 | 0.00 | 97 | 1006.1 |
| 20260505121219 | 10 | 50 | 0.0 | 3.2 | 0.00 | 0.00 | 0.00 | 97 | 1005.9 |
| 20260505120715 | 10 | 78 | 1.6 | 3.2 | 0.00 | 0.00 | 0.00 | 97 | 1005.9 |
| 20260505120211 | 10 | 88 | 1.6 | 3.2 | 0.00 | 0.00 | 0.00 | 97 | 1006.0 |
| 20260505115705 | 10 | 325 | 0.0 | 3.2 | 0.00 | 0.00 | 0.00 | 97 | 1005.8 |
| 20260505115203 | 10 | 338 | 0.0 | 4.8 | 0.00 | 0.00 | 0.00 | 97 | 1005.7 |
| 20260505114700 | 10 | 76 | 0.0 | 3.2 | 0.00 | 0.00 | 0.00 | 96 | 1005.8 |
| 20260505114155 | 10 | 25 | 1.6 | 4.8 | 0.00 | 0.00 | 0.00 | 96 | 1005.8 |
| 20260505113652 | 10 | 80 | 1.6 | 3.2 | 0.00 | 0.00 | 0.00 | 96 | 1005.6 |
| 20260505113149 | 11 | 65 | 0.0 | 4.8 | 0.00 | 0.00 | 0.00 | 95 | 1005.6 |
| 20260505112645 | 11 | 214 | 0.0 | 3.2 | 0.00 | 0.00 | 0.00 | 95 | 1005.7 |
| 20260505112143 | 11 | 192 | 0.0 | 4.8 | 0.00 | 0.00 | 0.00 | 95 | 1005.7 |
| 20260505111642 | 11 | 44 | 0.0 | 1.6 | 0.00 | 0.00 | 0.00 | 95 | 1005.5 |
| 20260505111139 | 11 | 89 | 0.0 | 1.6 | 0.00 | 0.00 | 0.00 | 94 | 1005.6 |
| 20260505110635 | 11 | 285 | 0.0 | 4.8 | 0.00 | 0.00 | 0.00 | 94 | 1005.6 |
| 20260505110133 | 11 | 21 | 0.0 | 8.0 | 0.00 | 0.00 | 0.00 | 94 | 1005.3 |
| 20260505102108 | 11 | 48 | 0.0 | 8.0 | 0.00 | 0.00 | 0.00 | 94 | 1005.4 |
| 20260505101607 | 11 | 80 | 1.6 | 4.8 | 0.00 | 0.00 | 0.00 | 94 | 1005.3 |
| 20260505101103 | 11 | 129 | 0.0 | 6.4 | 0.00 | 0.00 | 0.00 | 94 | 1005.3 |
| 20260505100559 | 11 | 156 | 4.8 | 6.4 | 0.00 | 0.00 | 0.00 | 94 | 1005.1 |
| 20260505100056 | 11 | 60 | 0.0 | 3.2 | 0.00 | 0.00 | 0.00 | 94 | 1005.1 |
| 20260505095552 | 11 | 37 | 0.0 | 4.8 | 0.00 | 0.00 | 0.00 | 94 | 1005.3 |
| 20260505095049 | 11 | 89 | 0.0 | 3.2 | 0.00 | 0.00 | 0.00 | 94 | 1005.2 |
| 20260505094545 | 11 | 295 | 0.0 | 4.8 | 0.00 | 0.00 | 0.00 | 94 | 1005.1 |
| 20260505094042 | 11 | 34 | 0.0 | 4.8 | 0.00 | 0.00 | 0.00 | 94 | 1005.4 |
| 20260505093538 | 11 | 74 | 3.2 | 4.8 | 0.00 | 0.00 | 0.00 | 94 | 1005.0 |
| 20260505093036 | 11 | 55 | 0.0 | 4.8 | 0.00 | 0.00 | 0.00 | 94 | 1004.9 |
| 20260505092533 | 11 | 32 | 1.6 | 3.2 | 0.00 | 0.00 | 0.00 | 95 | 1005.2 |
| 20260505092031 | 11 | 259 | 1.6 | 4.8 | 0.00 | 0.00 | 0.00 | 95 | 1005.2 |
| 20260505091528 | 11 | 76 | 0.0 | 3.2 | 0.00 | 0.00 | 0.00 | 94 | 1005.0 |
| 20260505091027 | 11 | 273 | 3.2 | 4.8 | 0.00 | 0.00 | 0.00 | 95 | 1005.1 |
| 20260505090524 | 10 | 97 | 1.6 | 4.8 | 0.00 | 0.00 | 0.00 | 95 | 1005.0 |
| 20260505090021 | 10 | 103 | 0.0 | 4.8 | 0.00 | 0.00 | 0.00 | 95 | 1004.8 |
| 20260505085519 | 10 | 12 | 0.0 | 4.8 | 0.00 | 0.00 | 0.00 | 95 | 1005.0 |
| 20260505085017 | 10 | 307 | 3.2 | 6.4 | 0.00 | 0.00 | 0.00 | 95 | 1005.1 |
| 20260505084515 | 10 | 269 | 0.0 | 4.8 | 0.00 | 0.00 | 0.00 | 95 | 1004.9 |
| 20260505084013 | 10 | 95 | 0.0 | 4.8 | 0.00 | 0.00 | 0.00 | 95 | 1004.9 |
| 20260505083510 | 10 | 356 | 3.2 | 4.8 | 0.00 | 0.00 | 0.00 | 95 | 1005.0 |
| 20260505083006 | 10 | 43 | 0.0 | 6.4 | 0.00 | 0.00 | 0.00 | 95 | 1005.0 |
| 20260505082502 | 10 | 178 | 1.6 | 11.3 | 0.00 | 0.00 | 0.00 | 96 | 1004.9 |
| 20260505081959 | 10 | 150 | 3.2 | 4.8 | 0.00 | 0.00 | 0.00 | 96 | 1004.9 |
| 20260505081455 | 10 | 95 | 3.2 | 4.8 | 0.00 | 0.00 | 0.00 | 96 | 1004.9 |
| 20260505080952 | 10 | 119 | 3.2 | 8.0 | 0.00 | 0.00 | 0.00 | 96 | 1004.8 |
| 20260505080448 | 10 | 136 | 3.2 | 4.8 | 0.00 | 0.00 | 0.00 | 96 | 1004.8 |
| 20260505075944 | 10 | 119 | 4.8 | 4.8 | 0.00 | 0.00 | 0.00 | 96 | 1004.8 |
| 20260505075441 | 10 | 75 | 0.0 | 8.0 | 0.00 | 0.00 | 0.00 | 97 | 1004.7 |
| 20260505074938 | 10 | 69 | 0.0 | 3.2 | 0.00 | 0.00 | 0.00 | 96 | 1004.7 |
| 20260505074436 | 10 | 87 | 4.8 | 4.8 | 0.00 | 0.00 | 0.00 | 96 | 1004.7 |
| 20260505073933 | 10 | 142 | 0.0 | 3.2 | 0.00 | 0.00 | 0.00 | 96 | 1004.7 |
| 20260505073430 | 10 | 71 | 0.0 | 4.8 | 0.00 | 0.00 | 0.00 | 96 | 1004.5 |
| 20260505072927 | 10 | 89 | 0.0 | 3.2 | 0.00 | 0.00 | 0.00 | 96 | 1004.5 |
| 20260505072423 | 10 | 82 | 4.8 | 6.4 | 0.00 | 0.00 | 0.00 | 95 | 1004.5 |
| 20260505071919 | 10 | 170 | 3.2 | 4.8 | 0.00 | 0.00 | 0.00 | 95 | 1004.4 |
| 20260505071415 | 10 | 169 | 1.6 | 4.8 | 0.00 | 0.00 | 0.00 | 96 | 1004.4 |
| 20260505070914 | 10 | 104 | 0.0 | 1.6 | 0.00 | 0.00 | 0.00 | 95 | 1004.3 |
| 20260505070410 | 10 | 131 | 3.2 | 4.8 | 0.00 | 0.00 | 0.00 | 95 | 1004.3 |
| 20260505065906 | 10 | 240 | 0.0 | 4.8 | 0.00 | 0.00 | 0.00 | 95 | 1004.3 |
| 20260505065403 | 10 | 108 | 4.8 | 8.0 | 0.00 | 0.00 | 0.00 | 95 | 1004.1 |
| 20260505064859 | 10 | 81 | 1.6 | 4.8 | 0.00 | 0.00 | 0.00 | 95 | 1004.3 |
| 20260505064357 | 10 | 126 | 1.6 | 4.8 | 0.00 | 0.00 | 0.00 | 95 | 1004.3 |
| 20260505063855 | 10 | 55 | 1.6 | 6.4 | 0.00 | 0.00 | 0.00 | 94 | 1004.3 |
| 20260505063355 | 10 | 288 | 0.0 | 6.4 | 0.00 | 0.00 | 0.00 | 94 | 1004.4 |
| 20260505062853 | 10 | 139 | 0.0 | 4.8 | 0.00 | 0.00 | 0.00 | 94 | 1004.1 |
| 20260505062350 | 10 | 182 | 1.6 | 6.4 | 0.00 | 0.00 | 0.00 | 94 | 1004.1 |
| 20260505061846 | 10 | 172 | 3.2 | 6.4 | 0.00 | 0.00 | 0.00 | 94 | 1004.1 |
| 20260505061345 | 11 | 5 | 3.2 | 11.3 | 0.00 | 0.00 | 0.00 | 94 | 1004.1 |
| 20260505060842 | 11 | 117 | 3.2 | 4.8 | 0.00 | 0.00 | 0.00 | 94 | 1004.3 |
| 20260505060339 | 11 | 106 | 3.2 | 8.0 | 0.00 | 0.00 | 0.00 | 94 | |
| 20260505055835 | 10 | 297 | 0.0 | 8.0 | 0.00 | 0.00 | 0.00 | 94 | |
| 20260505055331 | 10 | 252 | 1.6 | 4.8 | 0.00 | 0.00 | 0.00 | 94 | |
| 20260505054828 | 11 | 53 | 4.8 | 4.8 | 0.00 | 0.00 | 0.00 | 94 | 1003.9 |
| 20260505054325 | 11 | 14 | 4.8 | 4.8 | 0.00 | 0.00 | 0.00 | 93 | 1003.9 |
| 20260505053824 | 11 | 171 | 6.4 | 8.0 | 0.00 | 0.00 | 0.00 | 94 | 1003.9 |
| 20260505053320 | 11 | 103 | 0.0 | 4.8 | 0.00 | 0.00 | 0.00 | 93 | 1003.9 |
| 20260505052817 | 11 | 89 | 0.0 | 3.2 | 0.00 | 0.00 | 0.00 | 93 | 1003.9 |
| 20260505052314 | 11 | 142 | 0.0 | 3.2 | 0.00 | 0.00 | 0.00 | 93 | 1003.9 |
| 20260505051811 | 11 | 13 | 0.0 | 4.8 | 0.00 | 0.00 | 0.00 | 93 | 1003.9 |
| 20260505051308 | 11 | 279 | 0.0 | 6.4 | 0.00 | 0.00 | 0.00 | 93 | 1003.9 |
| 20260505050806 | 11 | 89 | 0.0 | 3.2 | 0.00 | 0.00 | 0.00 | 92 | 1003.9 |
| 20260505050305 | 11 | 63 | 3.2 | 8.0 | 0.00 | 0.00 | 0.00 | 92 | 1003.9 |
| 20260505041734 | 12 | 88 | 4.8 | 4.8 | 0.00 | 0.00 | 0.00 | 91 | 1003.3 |
| 20260505041231 | 12 | 189 | 0.0 | 4.8 | 0.00 | 0.00 | 0.00 | 91 | 1003.3 |
| 20260505040729 | 12 | 154 | 0.0 | 1.6 | 0.00 | 0.00 | 0.00 | 90 | 1003.0 |
| 20260505040226 | 12 | 348 | 1.6 | 4.8 | 0.00 | 0.00 | 0.00 | 90 | 1003.0 |
| 20260505035723 | 12 | 127 | 0.0 | 3.2 | 0.00 | 0.00 | 0.00 | 89 | 1003.0 |
| 20260505035219 | 13 | 66 | 0.0 | 11.3 | 0.00 | 0.00 | 0.00 | 89 | 1003.0 |
| 20260505034716 | 13 | 34 | 0.0 | 6.4 | 0.00 | 0.00 | 0.00 | 89 | 1002.6 |
| 20260505034213 | 13 | 124 | 0.0 | 4.8 | 0.00 | 0.00 | 0.00 | 88 | 1002.6 |
| 20260505033709 | 13 | 251 | 0.0 | 4.8 | 0.00 | 0.00 | 0.00 | 88 | 1002.6 |
| 20260505033207 | 13 | 86 | 0.0 | 6.4 | 0.00 | 0.00 | 0.00 | 87 | 1002.5 |
| 20260505032705 | 13 | 284 | 0.0 | 4.8 | 0.00 | 0.00 | 0.00 | 87 | 1002.5 |
| 20260505032200 | 14 | 45 | 3.2 | 3.2 | 0.00 | 0.00 | 0.00 | 86 | 1002.6 |
| 20260505031658 | 15 | 285 | 3.2 | 4.8 | 0.00 | 0.00 | 0.00 | 85 | 1002.5 |
| 20260505031154 | 15 | 116 | 0.0 | 6.4 | 0.00 | 0.00 | 0.00 | 85 | 1002.4 |
| 20260505030651 | 15 | 135 | 4.8 | 14.5 | 0.00 | 0.00 | 0.00 | 84 | 1002.4 |
| 20260505030147 | 15 | 336 | 1.6 | 11.3 | 0.00 | 0.00 | 0.00 | 84 | 1002.4 |
| 20260505025643 | 15 | 345 | 0.0 | 3.2 | 0.00 | 0.00 | 0.00 | 83 | 1002.4 |
| 20260505025142 | 15 | 104 | 1.6 | 8.0 | 0.00 | 0.00 | 0.00 | 83 | 1002.1 |
| 20260505024639 | 16 | 280 | 1.6 | 6.4 | 0.00 | 0.00 | 0.00 | 82 | 1002.3 |
| 20260505024136 | 16 | 50 | 0.0 | 17.7 | 0.00 | 0.00 | 0.00 | 82 | 1001.9 |
| 20260505023634 | 16 | 284 | 4.8 | 9.7 | 0.00 | 0.00 | 0.00 | 81 | 1001.9 |
| 20260505023131 | 16 | 25 | 1.6 | 6.4 | 0.00 | 0.00 | 0.00 | 80 | 1002.1 |
| 20260505022628 | 17 | 49 | 1.6 | 11.3 | 0.00 | 0.00 | 0.00 | 79 | 1002.1 |
| 20260505022125 | 17 | 333 | 3.2 | 8.0 | 0.00 | 0.00 | 0.00 | 79 | 1002.1 |
| 20260505021622 | 17 | 32 | 1.6 | 6.4 | 0.00 | 0.00 | 0.00 | 79 | 1002.1 |
| 20260505021119 | 17 | 89 | 0.0 | 8.0 | 0.00 | 0.00 | 0.00 | 77 | 1002.1 |
| 20260505020614 | 17 | 331 | 1.6 | 6.4 | 0.00 | 0.00 | 0.00 | 78 | 1002.0 |
| 20260505020111 | 17 | 297 | 3.2 | 8.0 | 0.00 | 0.00 | 0.00 | 78 | 1002.0 |
| 20260505015608 | 18 | 317 | 3.2 | 8.0 | 0.00 | 0.00 | 0.00 | 76 | 1002.0 |
| 20260505015105 | 18 | 314 | 4.8 | 6.4 | 0.00 | 0.00 | 0.00 | 76 | 1001.9 |
| 20260505014601 | 18 | 355 | 6.4 | 11.3 | 0.00 | 0.00 | 0.00 | 77 | 1001.9 |
| 20260505014058 | 18 | 140 | 3.2 | 16.1 | 0.00 | 0.00 | 0.00 | 74 | 1002.0 |
| 20260505013555 | 18 | 249 | 0.0 | 11.3 | 0.00 | 0.00 | 0.00 | 74 | 1002.0 |
| 20260505013053 | 18 | 25 | 0.0 | 9.7 | 0.00 | 0.00 | 0.00 | 74 | 1002.0 |
| 20260505012550 | 19 | 96 | 3.2 | 9.7 | 0.00 | 0.00 | 0.00 | 75 | 1002.1 |
| 20260505012047 | 20 | 313 | 3.2 | 9.7 | 0.00 | 0.00 | 0.00 | 73 | 1002.0 |
| 20260505011543 | 20 | 282 | 4.8 | 14.5 | 0.00 | 0.00 | 0.00 | 73 | 1002.1 |
| 20260505011041 | 20 | 265 | 4.8 | 8.0 | 0.00 | 0.00 | 0.00 | 73 | 1002.0 |
| 20260505010536 | 20 | 284 | 3.2 | 12.9 | 0.00 | 0.00 | 0.00 | 73 | 1002.0 |
| 20260505010033 | 20 | 312 | 1.6 | 4.8 | 0.00 | 0.00 | 0.00 | 72 | 1002.1 |
| 20260505005529 | 20 | 277 | 0.0 | 8.0 | 0.00 | 0.00 | 0.00 | 72 | 1002.2 |
| 20260505005027 | 20 | 239 | 3.2 | 9.7 | 0.00 | 0.00 | 0.00 | 73 | 1002.1 |
| 20260505004523 | 21 | 283 | 4.8 | 8.0 | 0.00 | 0.00 | 0.00 | 71 | 1001.9 |
| 20260505004020 | 21 | 292 | 4.8 | 6.4 | 0.00 | 0.00 | 0.00 | 72 | 1002.1 |
| 20260505003517 | 21 | 306 | 3.2 | 6.4 | 0.00 | 0.00 | 0.00 | 72 | 1002.2 |
| 20260505003015 | 21 | 306 | 3.2 | 6.4 | 0.00 | 0.00 | 0.00 | 72 | 1002.2 |
| 20260505002509 | 21 | 318 | 3.2 | 9.7 | 0.00 | 0.00 | 0.00 | 72 | 1002.2 |
| 20260505002009 | 21 | 217 | 0.0 | 6.4 | 0.00 | 0.00 | 0.00 | 71 | 1002.2 |
| 20260505001506 | 21 | 8 | 1.6 | 9.7 | 0.00 | 0.00 | 0.00 | 71 | 1002.0 |
| 20260505001003 | 21 | 323 | 8.0 | 16.1 | 0.00 | 0.00 | 0.00 | 73 | 1002.3 |
| 20260505000500 | 21 | 248 | 0.0 | 19.3 | 0.00 | 0.00 | 0.00 | 72 | 1002.1 |
| 20260504235957 | 21 | 292 | 11.3 | 19.3 | 0.00 | 0.00 | 0.00 | 70 | 1002.2 |
| 20260504235454 | 21 | 341 | 4.8 | 9.7 | 0.00 | 0.00 | 0.00 | 73 | 1002.3 |
| 20260504234950 | 21 | 290 | 4.8 | 6.4 | 0.00 | 0.00 | 0.00 | 74 | 1002.2 |
| 20260504234448 | 21 | 111 | 4.8 | 8.0 | 0.00 | 0.00 | 0.00 | 74 | 1002.2 |
| 20260504233944 | 21 | 106 | 8.0 | 12.9 | 0.00 | 0.00 | 0.00 | 72 | 1002.3 |
| 20260504233440 | 21 | 141 | 4.8 | 11.3 | 0.00 | 0.00 | 0.00 | 68 | 1002.3 |
| 20260504232937 | 21 | 38 | 1.6 | 8.0 | 0.00 | 0.00 | 0.00 | 72 | 1002.3 |
| 20260504232434 | 21 | 353 | 3.2 | 9.7 | 0.00 | 0.00 | 0.00 | 71 | 1002.6 |
| 20260504231931 | 21 | 292 | 6.4 | 9.7 | 0.00 | 0.00 | 0.00 | 71 | 1002.6 |
| 20260504231427 | 21 | 36 | 3.2 | 11.3 | 0.00 | 0.00 | 0.00 | 71 | 1002.6 |
| 20260504230924 | 21 | 331 | 4.8 | 12.9 | 0.00 | 0.00 | 0.00 | 71 | 1002.6 |
| 20260504230421 | 21 | 356 | 1.6 | 8.0 | 0.00 | 0.00 | 0.00 | 71 | 1002.6 |
| 20260504225920 | 21 | 211 | 6.4 | 9.7 | 0.00 | 0.00 | 0.00 | 68 | 1002.8 |
| 20260504225416 | 21 | 167 | 4.8 | 9.7 | 0.00 | 0.00 | 0.00 | 68 | 1002.8 |
| 20260504224914 | 21 | 155 | 8.0 | 11.3 | 0.00 | 0.00 | 0.00 | 68 | 1002.7 |
| 20260504224410 | 21 | 91 | 6.4 | 12.9 | 0.00 | 0.00 | 0.00 | 67 | 1002.7 |
| 20260504223907 | 21 | 158 | 6.4 | 12.9 | 0.00 | 0.00 | 0.00 | 70 | 1002.9 |
| 20260504223402 | 21 | 86 | 3.2 | 14.5 | 0.00 | 0.00 | 0.00 | 68 | 1002.9 |
| 20260504222859 | 20 | 152 | 4.8 | 16.1 | 0.00 | 0.00 | 0.00 | 69 | 1003.0 |
| 20260504222356 | 21 | 232 | 4.8 | 9.7 | 0.00 | 0.00 | 0.00 | 66 | 1002.8 |
| 20260504221854 | 21 | 180 | 4.8 | 11.3 | 0.00 | 0.00 | 0.00 | 71 | 1003.1 |
| 20260504221351 | 21 | 330 | 4.8 | 11.3 | 0.00 | 0.00 | 0.00 | 70 | 1003.0 |
| 20260504220848 | 21 | 288 | 3.2 | 8.0 | 0.00 | 0.00 | 0.00 | 67 | 1003.2 |
| 20260504220344 | 21 | 74 | 8.0 | 9.7 | 0.00 | 0.00 | 0.00 | 68 | 1003.1 |
| 20260504215842 | 21 | 25 | 3.2 | 8.0 | 0.00 | 0.00 | 0.00 | 69 | 1003.3 |
| 20260504215338 | 20 | 39 | 4.8 | 11.3 | 0.00 | 0.00 | 0.00 | 70 | 1003.5 |
| 20260504214834 | 20 | 183 | 4.8 | 14.5 | 0.00 | 0.00 | 0.00 | 70 | 1003.5 |
| 20260504214331 | 20 | 85 | 1.6 | 14.5 | 0.00 | 0.00 | 0.00 | 70 | 1003.2 |
| 20260504213828 | 20 | 98 | 11.3 | 11.3 | 0.00 | 0.00 | 0.00 | 71 | 1003.4 |
| 20260504213324 | 20 | 58 | 4.8 | 11.3 | 0.00 | 0.00 | 0.00 | 72 | 1003.4 |
| 20260504212821 | 20 | 305 | 4.8 | 9.7 | 0.00 | 0.00 | 0.00 | 70 | 1003.5 |
| 20260504212317 | 21 | 34 | 3.2 | 6.4 | 0.00 | 0.00 | 0.00 | 72 | 1003.7 |
| 20260504211815 | 20 | 175 | 6.4 | 8.0 | 0.00 | 0.00 | 0.00 | 71 | 1003.6 |
| 20260504211311 | 20 | 7 | 3.2 | 6.4 | 0.00 | 0.00 | 0.00 | 70 | 1003.8 |
| 20260504210809 | 19 | 100 | 3.2 | 8.0 | 0.00 | 0.00 | 0.00 | 75 | 1003.7 |
| 20260504210306 | 18 | 106 | 4.8 | 14.5 | 0.00 | 0.00 | 0.00 | 73 | 1004.0 |
| 20260504205803 | 18 | 79 | 4.8 | 11.3 | 0.00 | 0.00 | 0.00 | 73 | 1003.8 |
| 20260504205300 | 20 | 182 | 4.8 | 14.5 | 0.00 | 0.00 | 0.00 | 73 | 1003.9 |
| 20260504204758 | 18 | 93 | 12.9 | 14.5 | 0.00 | 0.00 | 0.00 | 75 | 1003.9 |
| 20260504204256 | 19 | 209 | 8.0 | 12.9 | 0.00 | 0.00 | 0.00 | 72 | 1004.2 |
| 20260504203756 | 18 | 343 | 6.4 | 9.7 | 0.00 | 0.00 | 0.00 | 75 | 1004.2 |
| 20260504203252 | 18 | 146 | 4.8 | 11.3 | 0.00 | 0.00 | 0.00 | 76 | 1004.2 |
| 20260504202747 | 18 | 121 | 6.4 | 16.1 | 0.00 | 0.00 | 0.00 | 73 | 1004.1 |
| 20260504202245 | 18 | 12 | 3.2 | 6.4 | 0.00 | 0.00 | 0.00 | 72 | 1004.3 |
| 20260504201741 | 18 | 184 | 8.0 | 14.5 | 0.00 | 0.00 | 0.00 | 76 | 1004.1 |
| 20260504201238 | 19 | 321 | 9.7 | 9.7 | 0.00 | 0.00 | 0.00 | 76 | 1004.4 |
| 20260504200737 | 18 | 251 | 4.8 | 8.0 | 0.00 | 0.00 | 0.00 | 78 | 1004.2 |
| 20260504200232 | 18 | 71 | 6.4 | 14.5 | 0.00 | 0.00 | 0.00 | 74 | 1004.3 |
| 20260504195729 | 17 | 170 | 9.7 | 14.5 | 0.00 | 0.00 | 0.00 | 76 | 1004.3 |
| 20260504195225 | 18 | 141 | 3.2 | 9.7 | 0.00 | 0.00 | 0.00 | 74 | 1004.3 |
| 20260504194722 | 17 | 97 | 4.8 | 9.7 | 0.00 | 0.00 | 0.00 | 75 | 1004.3 |
| 20260504194218 | 18 | 355 | 3.2 | 9.7 | 0.00 | 0.00 | 0.00 | 75 | 1004.3 |
| 20260504193714 | 17 | 329 | 4.8 | 11.3 | 0.00 | 0.00 | 0.00 | 79 | 1004.3 |
| 20260504193212 | 16 | 75 | 1.6 | 11.3 | 0.00 | 0.00 | 0.00 | 78 | 1004.3 |
| 20260504192710 | 16 | 66 | 3.2 | 11.3 | 0.00 | 0.00 | 0.00 | 78 | 1004.5 |
| 20260504192208 | 17 | 84 | 6.4 | 16.1 | 0.00 | 0.00 | 0.00 | 77 | 1004.5 |
| 20260504191706 | 17 | 99 | 9.7 | 16.1 | 0.00 | 0.00 | 0.00 | 77 | 1004.5 |
| 20260504191203 | 16 | 70 | 8.0 | 11.3 | 0.00 | 0.00 | 0.00 | 79 | 1004.5 |
| 20260504190658 | 16 | 82 | 12.9 | 17.7 | 0.00 | 0.00 | 0.00 | 77 | 1004.6 |
| 20260504190155 | 17 | 221 | 4.8 | 8.0 | 0.00 | 0.00 | 0.00 | 78 | 1004.6 |
| 20260504185651 | 16 | 249 | 6.4 | 11.3 | 0.00 | 0.00 | 0.00 | 81 | 1004.7 |
| 20260504185148 | 17 | 82 | 1.6 | 8.0 | 0.00 | 0.00 | 0.00 | 79 | 1004.7 |
| 20260504184644 | 16 | 6 | 0.0 | 12.9 | 0.00 | 0.00 | 0.00 | 79 | 1004.8 |
| 20260504184139 | 16 | 86 | 3.2 | 12.9 | 0.00 | 0.00 | 0.00 | 79 | 1004.6 |
| 20260504183636 | 16 | 204 | 6.4 | 12.9 | 0.00 | 0.00 | 0.00 | 79 | 1004.7 |
| 20260504183134 | 16 | 136 | 6.4 | 11.3 | 0.00 | 0.00 | 0.00 | 79 | 1004.6 |
| 20260504182631 | 16 | 127 | 12.9 | 16.1 | 0.00 | 0.00 | 0.00 | 77 | 1004.7 |
| 20260504182129 | 15 | 102 | 1.6 | 6.4 | 0.00 | 0.00 | 0.00 | 83 | 1004.6 |
| 20260504181626 | 15 | 96 | 8.0 | 9.7 | 0.00 | 0.00 | 0.00 | 84 | 1004.7 |
| 20260504181123 | 15 | 276 | 6.4 | 11.3 | 0.00 | 0.00 | 0.00 | 83 | 1004.8 |
| 20260504180623 | 15 | 193 | 4.8 | 6.4 | 0.00 | 0.00 | 0.00 | 82 | 1004.7 |
| 20260504180121 | 14 | 109 | 0.0 | 14.5 | 0.00 | 0.00 | 0.00 | 85 | 1004.6 |
| 20260504175618 | 15 | 41 | 4.8 | 8.0 | 0.00 | 0.00 | 0.00 | 83 | 1004.7 |
| 20260504175114 | 15 | 108 | 3.2 | 9.7 | 0.00 | 0.00 | 0.00 | 85 | 1004.7 |
| 20260504174613 | 15 | 215 | 4.8 | 17.7 | 0.00 | 0.00 | 0.00 | 84 | 1004.6 |
| 20260504174109 | 15 | 65 | 3.2 | 6.4 | 0.00 | 0.00 | 0.00 | 84 | 1004.7 |
| 20260504173606 | 15 | 62 | 3.2 | 6.4 | 0.00 | 0.00 | 0.00 | 84 | 1004.7 |
| 20260504173104 | 15 | 137 | 4.8 | 11.3 | 0.00 | 0.00 | 0.00 | 83 | 1004.5 |
| 20260504172559 | 14 | 59 | 4.8 | 12.9 | 0.00 | 0.00 | 0.00 | 85 | 1004.7 |
| 20260504172056 | 15 | 163 | 8.0 | 14.5 | 0.00 | 0.00 | 0.00 | 83 | 1004.6 |
| 20260504171553 | 15 | 79 | 8.0 | 9.7 | 0.00 | 0.00 | 0.00 | 83 | 1004.6 |
| 20260504171050 | 14 | 344 | 4.8 | 8.0 | 0.00 | 0.00 | 0.00 | 85 | 1004.6 |
| 20260504170545 | 14 | 346 | 1.6 | 8.0 | 0.00 | 0.00 | 0.00 | 87 | 1004.5 |